K3GM Weather Reports


Display with metric or nautical units.
time (UTC)temp
F
wind
direction
speed
MPH
gust
MPH
rain 1hr
in
rain 24hr
in
rain mn
in
humidity
%
barometer
mb
20260903211544 85 0 0.0 0.0 0.00 1.11 1.11 65 1012.6
20260903210052 86 0 0.0 0.0 0.00 1.11 1.11 65 1012.7
20260903204540 86 0 0.0 0.0 0.00 1.11 1.11 65 1012.7
20260903203039 86 0 0.0 0.0 0.00 1.11 1.11 72 1012.8
20260903201538 86 0 0.0 0.0 0.00 1.11 1.11 73 1012.9
20260903200043 86 0 0.0 0.0 0.00 1.11 1.11 66 1013.1
20260903194548 87 0 0.0 0.0 0.00 1.12 1.11 71 1013.1
20260903193051 87 0 0.0 0.0 0.00 1.12 1.11 71 1013.4
20260903191545 87 0 0.0 0.0 0.00 1.12 1.11 71 1013.7
20260903190050 87 0 0.0 0.0 0.00 1.12 1.11 66 1013.8
20260903184542 86 0 0.0 0.0 0.00 1.13 1.11 74 1014.0
20260903183046 86 0 0.0 0.0 0.00 1.13 1.11 67 1014.0
20260903181544 87 0 0.0 0.0 0.00 1.13 1.11 67 1014.2
20260903180044 86 0 0.0 0.0 0.00 1.13 1.11 75 1014.2
20260903174541 85 0 0.0 0.0 0.00 1.13 1.11 69 1014.4
20260903173045 86 0 0.0 0.0 0.00 1.13 1.11 67 1014.7
20260903171543 85 0 0.0 0.0 0.00 1.13 1.11 74 1014.9
20260903170043 84 0 0.0 0.0 0.00 1.13 1.11 74 1015.0
20260903164540 83 0 0.0 0.0 0.00 1.13 1.11 72 1015.1
20260903163044 82 0 0.0 0.0 0.00 1.13 1.11 72 1015.8
20260903161545 83 0 0.0 0.0 0.00 1.13 1.11 81 1015.8
20260903160048 81 0 0.0 0.0 0.00 1.13 1.11 76 1016.2
20260903154543 81 0 0.0 0.0 0.00 1.13 1.11 77 1016.3
20260903153043 80 0 0.0 0.0 0.00 1.13 1.11 84 1015.8
20260903151543 79 0 0.0 0.0 0.00 1.13 1.11 90 1016.2
20260903150049 78 0 0.0 0.0 0.00 1.13 1.11 94 1016.2
20260903144542 77 0 0.0 0.0 0.00 1.13 1.11 90 1016.2
20260903143046 76 0 0.0 0.0 0.00 1.13 1.11 100 1016.1
20260903141542 75 0 0.0 0.0 0.00 1.13 1.11 100 1016.2
20260903140040 75 0 0.0 0.0 0.00 1.13 1.11 100 1016.1
20260903134548 75 0 0.0 0.0 0.00 1.13 1.11 100 1015.6
20260903133040 74 0 0.0 0.0 0.00 1.13 1.11 100 1015.4
20260903131540 73 0 0.0 0.0 0.00 1.13 1.11 100 1015.7
20260903130041 73 0 0.0 0.0 0.00 1.13 1.11 100 1015.9
20260903124539 72 0 0.0 0.0 0.00 1.13 1.11 100 1016.1
20260903123038 72 0 0.0 0.0 0.00 1.13 1.11 100 1015.7
20260903121537 71 0 0.0 0.0 0.00 1.13 1.11 100 1015.4
20260903120042 71 0 0.0 0.0 0.00 1.13 1.11 100 1015.5
20260903114543 72 0 0.0 0.0 0.00 1.13 1.11 100 1016.4
20260903113042 71 0 0.0 0.0 0.00 1.13 1.11 100 1016.5
20260903111541 71 0 0.0 0.0 0.01 1.13 1.11 100 1016.8
20260903110042 71 0 0.0 0.0 0.01 1.13 1.11 100 1017.1
20260903104549 71 0 0.0 0.0 0.03 1.13 1.11 100 1016.4
20260903103044 70 0 0.0 0.0 0.08 1.13 1.11 100 1016.7
20260903101542 71 0 0.0 0.0 0.10 1.12 1.10 100 1016.1
20260903100043 71 0 0.0 0.0 0.12 1.12 1.10 100 1016.2
20260903094547 71 0 0.0 0.0 0.26 1.10 1.08 100 1016.9
20260903093052 70 0 0.0 0.0 0.36 1.04 1.03 100 1017.4
20260903091537 71 0 0.0 0.0 0.34 1.02 1.00 100 1017.2
20260903090044 70 0 0.0 0.0 0.41 0.99 0.97 100 1017.9
20260903084544 70 0 0.0 0.0 0.24 0.81 0.79 100 1018.7
20260903083044 70 0 0.0 0.0 0.12 0.69 0.67 100 1018.0
20260903081543 70 0 0.0 0.0 0.11 0.68 0.66 100 1017.7
20260903080045 70 0 0.0 0.0 0.02 0.58 0.56 100 1017.8
20260903074543 70 0 0.0 0.0 0.02 0.57 0.55 100 1017.2
20260903073056 70 0 0.0 0.0 0.08 0.57 0.55 100 1017.1
20260903071540 70 0 0.0 0.0 0.18 0.57 0.55 100 1017.3
20260903070044 70 0 0.0 0.0 0.52 0.56 0.54 100 1017.4
20260903064543 70 0 0.0 0.0 0.52 0.55 0.52 100 1017.5
20260903063044 70 0 0.0 0.0 0.46 0.48 0.46 100 1017.9
20260903061540 70 0 0.0 0.0 0.35 0.37 0.35 100 1018.4
20260903060039 70 0 0.0 0.0 0.01 0.03 0.01 100 1019.1
20260903054543 70 0 0.0 0.0 0.00 0.02 0.00 100 1018.0
20260903053042 70 0 0.0 0.0 0.00 0.02 0.00 100 1018.5
20260903051550 70 0 0.0 0.0 0.00 0.02 0.00 100 1018.6
20260903050044 70 0 0.0 0.0 0.00 0.02 0.00 100 1018.4
20260903044539 70 0 0.0 0.0 0.00 0.02 0.00 100 1018.1
20260903043041 70 0 0.0 0.0 0.00 0.02 0.00 100 1018.3
20260903041545 71 0 0.0 0.0 0.00 0.02 0.00 100 1018.7
20260903040043 71 0 0.0 0.0 0.00 0.02 0.00 100 1018.9
20260903034540 71 0 0.0 0.0 0.00 0.02 0.02 100 1019.2
20260903033043 71 0 0.0 0.0 0.00 0.02 0.02 100 1018.7
20260903031544 71 0 0.0 0.0 0.00 0.02 0.02 100 1018.8
20260903030044 71 0 0.0 0.0 0.00 0.02 0.02 100 1018.6
20260903024541 71 0 0.0 0.0 0.00 0.02 0.02 100 1018.7
20260903023058 71 0 0.0 0.0 0.00 0.02 0.02 100 1019.1
20260903021546 71 0 0.0 0.0 0.00 0.02 0.02 100 1018.5
20260903020042 71 0 0.0 0.0 0.00 0.02 0.02 100 1018.4
20260903014541 71 0 0.0 0.0 0.00 0.10 0.02 100 1018.8
20260903013042 71 0 0.0 0.0 0.00 0.10 0.02 100 1018.9
20260903011543 71 0 0.0 0.0 0.00 0.10 0.02 99 1019.0
20260903010042 71 0 0.0 0.0 0.00 0.10 0.02 98 1019.0
20260903004542 71 0 0.0 0.0 0.00 0.12 0.02 97 1019.1
20260903003050 72 0 0.0 0.0 0.00 0.12 0.02 98 1018.9
20260903001542 72 0 0.0 0.0 0.00 0.12 0.02 97 1018.7
20260903000043 72 0 0.0 0.0 0.00 0.12 0.02 97 1018.4
20260902234543 72 0 0.0 0.0 0.00 0.12 0.02 97 1018.3
20260902233039 72 0 0.0 0.0 0.00 0.12 0.02 97 1018.3
20260902231555 72 0 0.0 0.0 0.00 0.12 0.02 98 1018.2
20260902230043 72 0 0.0 0.0 0.00 0.12 0.02 98 1018.5
20260902224540 72 0 0.0 0.0 0.00 0.12 0.02 98 1018.7
20260902223039 72 0 0.0 0.0 0.00 0.12 0.02 99 1019.0
20260902221553 72 0 0.0 0.0 0.00 0.12 0.02 100 1018.9
20260902220042 72 0 0.0 0.0 0.00 0.12 0.02 100 1018.8
20260902214547 72 0 0.0 0.0 0.00 0.12 0.02 100 1019.0
20260902213050 72 0 0.0 0.0 0.00 0.12 0.02 100 1018.8